Home   Weather   Santa Cruz   Past weeks
Flag for Bolivia

Past Weather in Santa Cruz, Bolivia — Yesterday and Last 2 Weeks

Now
72 °F

Clear.


Feels Like: 67 °F
Forecast: 85 / 75 °F
Wind: 17 mph from North

Location: Viru-Viru

Current Time: Jul 22, 2019 at 3:57:58 am

Latest Report: Jul 22, 2019 at 3:00 am


Visibility: N/A

Pressure: 29.77 "Hg

Humidity: 94%

Dew Point: 70 °F

Location of Santa CruzLocation

Past Weather in Santa Cruz — Graph

°F

Santa Cruz Temperature Yesterday

Maximum temperature yesterday: 86 °F (at 1:00 pm)
Minimum temperature yesterday: 70 °F (at 2:00 am)
Average temperature yesterday: 78 °F

High & Low Weather Summary for the Past Weeks

 TemperatureHumidityPressure
High88 °F (Jul 20, 3:00 pm)100% (Jul 14, 11:00 am)30.24 "Hg (Jul 14, 11:00 am)
Low50 °F (Jul 7, 6:00 am)38% (Jul 7, 2:00 pm)29.74 "Hg (Jul 21, 4:00 pm)
Average72 °F76%29.97 "Hg
* Reported Jul 7 2:00 am — Jul 22 2:00 am, Santa Cruz. Weather by CustomWeather, © 2019

Note: Actual official high and low records may vary slightly from our data, if they occured in-between our weather recording intervals... More about our weather records

Advertising

Santa Cruz Weather History for the Previous 24 Hours

Scroll right to see more
 ConditionsComfort  
Time TempWeatherWind HumidityBarometerVisibility
2:00 am
Mon, Jul 22
72 °FClear.12 mph94%29.80 "HgN/A
1:00 am73 °FClear.12 mph89%29.80 "HgN/A
12:00 am75 °FClear.13 mph83%29.80 "HgN/A
11:00 pm
Sun, Jul 21
75 °FPassing clouds.12 mph83%29.80 "HgN/A
10:00 pm77 °FClear.13 mph74%29.80 "Hg6 mi
9:00 pm77 °FPassing clouds.14 mph74%29.80 "Hg6 mi
8:00 pm79 °FPassing clouds.16 mph65%29.77 "Hg6 mi
7:00 pm81 °FPassing clouds.16 mph62%29.74 "Hg6 mi
6:00 pm82 °FPassing clouds.17 mph58%29.74 "Hg6 mi
5:00 pm84 °FScattered clouds.21 mph58%29.74 "Hg6 mi
4:00 pm86 °FScattered clouds.28 mph55%29.74 "Hg6 mi
3:00 pm84 °FScattered clouds.25 mph58%29.80 "Hg5 mi
2:00 pm86 °FPartly sunny.28 mph55%29.77 "Hg5 mi
1:00 pm86 °FScattered clouds.29 mph55%29.83 "Hg5 mi
12:00 pm84 °FPartly sunny.25 mph58%29.86 "Hg5 mi
11:00 am82 °FScattered clouds.23 mph66%29.89 "HgN/A
10:00 am81 °FScattered clouds.16 mph70%29.89 "HgN/A
9:00 am79 °FScattered clouds.23 mph70%29.86 "HgN/A
8:33 am77 °FScattered clouds.17 mph79%29.86 "HgN/A
8:00 am70 °FScattered clouds.13 mph100%29.86 "HgN/A
7:00 am70 °FPartly sunny.20 mph100%29.83 "HgN/A
6:00 am72 °FPassing clouds.17 mph94%29.83 "HgN/A
5:00 am72 °FPassing clouds.21 mph88%29.80 "HgN/A
4:00 am72 °FPassing clouds.21 mph88%29.83 "HgN/A
3:00 am70 °FPassing clouds.10 mph94%29.83 "HgN/A
Weather by CustomWeather, © 2019

See weather overview